sat.trackr.live / text

‹ back to catalog

STARLINK-33749

NORAD 63716 · 2025-087V

PAYLOAD ACTIVE UNKNOWN

§ Identity

Operator
Country
US
Launch date
2025-04-28
Launch site
AFWTR
Launch vehicle
Mass (kg)
RCS (m²)

Purposes: comms

External: N2YO · Heavens-Above · Gunter

§ Orbital elements

Epoch: 2026-05-24T17:46:41.313216Z

Period
94.01 min
Inclination
53.1607°
Eccentricity
0.0000458
Mean motion
15.31717438 rev/d
Perigee alt
470.4 km
Apogee alt
471.0 km
Semi-major
6,848.8 km
B*
6.1464e-4
RAAN
226.2865°
Arg perigee
67.9035°
Mean anomaly
292.2015°
Rev number
6,084

§ Raw data

STARLINK-337491 63716U 25087V   26144.74075594  .00018766  00000+0  61464-3 0  99942 63716  53.1607 226.2865 0000458  67.9035 292.2015 15.31717438 60844

JSON: /api/v1/satellites/63716 · /tle

For live sub-satellite position, see the globe view (requires WebGL).

§ Visibility from observer

Set your observer location to see the next 7 days of passes ≥ 10°. The values pass through the URL so the page stays shareable.

No JS? Fill the form by hand. The geolocation button needs JavaScript.